Theta_e
307 300 298 300 302 302 299 297 295 298 302 299 299 299 303 306 307 306 307 309 311 312 315 318 320 321 323 328 335 340 343 349 350 356 355 355 350 354 355 353 356 354 353 352
301 298 302 302 301 299 298 295 295 299 301 300 299 298 303 305 305 306 308 309 311 313 314 316 319 322 326 331 339 339 340 347 348 352 355 356 354 351 354 352 352 354 353 351
297 300 303 300 298 297 297 295 295 295 298 300 298 296 299 304 306 308 310 311 312 313 314 317 318 321 324 326 333 338 340 342 347 349 354 355 354 350 347 348 349 353 352 350
299 303 301 300 298 299 293 299 297 296 294 289 298 288 297 301 302 305 307 310 310 312 314 316 318 321 322 324 329 337 339 345 344 346 341 350 348 345 345 346 349 351 351 348
297 299 299 298 298 300 296 301 298 297 294 294 294 291 295 301 299 303 307 309 310 311 313 314 315 318 322 323 324 334 338 341 347 351 350 350 351 349 349 348 345 349 348 348
301 306 303 301 301 301 302 299 299 298 296 289 294 293 294 296 300 304 305 309 310 311 312 313 316 321 321 322 322 327 339 340 347 349 350 349 351 350 344 343 343 346 344 348
299 300 303 303 298 301 299 295 288 285 286 286 295 292 293 302 304 306 306 307 310 312 312 312 312 313 320 320 323 324 328 336 343 347 347 347 351 351 348 343 341 344 341 346
293 291 299 303 299 296 296 294 288 281 283 287 294 288 294 304 307 308 308 309 310 311 312 313 314 316 315 320 326 325 329 335 339 342 346 347 352 350 350 346 344 342 340 346
292 292 302 301 302 300 296 292 298 292 293 289 291 296 302 305 303 306 306 307 309 312 313 314 315 317 320 322 324 326 329 331 336 340 346 346 347 349 348 346 344 342 344 338
297 290 298 300 303 301 298 300 292 294 284 282 289 290 291 297 299 303 305 307 308 310 311 313 315 316 321 324 324 330 333 331 331 334 344 344 347 348 350 351 343 340 334 333
299 295 294 298 296 295 295 294 296 296 292 284 283 288 302 300 300 302 305 307 309 310 311 312 312 315 318 318 321 326 329 332 332 331 333 344 345 348 350 349 345 334 333 331
299 295 290 292 298 300 298 296 296 290 288 292 289 289 303 303 304 304 304 306 309 310 311 311 312 314 317 316 318 321 327 327 332 331 330 342 347 348 347 345 338 332 330 330
300 293 286 288 295 298 295 296 296 297 296 288 286 289 303 304 304 305 304 305 307 309 310 311 311 311 314 316 318 320 324 325 327 329 331 341 346 346 344 336 332 330 329 324
303 293 289 284 288 293 291 293 294 294 288 289 290 292 298 300 301 303 303 306 307 308 309 310 309 310 313 317 318 320 322 326 328 328 329 334 337 332 330 329 328 328 323 321
301 290 293 293 293 293 292 291 293 291 293 288 292 293 296 299 301 302 305 306 305 306 307 308 308 310 310 313 316 317 320 326 329 327 330 332 333 332 327 325 323 323 321 321
304 290 294 290 293 292 290 293 294 294 295 294 294 293 300 302 303 302 303 303 303 304 306 307 307 309 308 311 314 316 319 322 329 327 333 332 332 327 324 323 321 320 317 317
294 292 290 286 291 290 287 292 294 295 296 295 291 296 299 299 300 301 302 302 302 303 304 305 306 308 308 310 314 316 318 322 325 331 330 323 324 325 323 321 314 308 306 305
292 289 293 286 289 280 293 300 299 295 298 298 297 299 299 299 301 303 303 303 303 303 304 305 306 307 308 310 310 315 321 320 322 329 327 321 317 310 308 306 304 303 303 302
303 294 288 284 285 289 292 296 294 292 293 299 298 297 298 299 300 299 303 304 303 303 305 304 306 306 306 306 308 312 316 318 323 326 324 319 315 310 307 304 302 300 299 299
300 297 286 286 283 282 293 298 301 299 289 299 297 297 296 297 289 293 301 302 302 304 304 304 305 306 305 306 308 310 312 315 321 321 316 315 311 306 303 302 300 299 299 298
293 293 289 289 286 290 297 300 300 287 290 298 298 297 296 291 294 298 300 299 300 300 300 302 302 302 305 308 311 308 311 317 319 316 315 311 308 305 304 301 300 298 297 296
291 289 289 290 286 284 303 299 291 296 301 299 298 296 294 294 294 294 295 295 296 296 298 301 301 302 305 308 310 308 312 320 316 312 309 307 307 306 303 299 298 296 295 293
289 295 291 291 292 302 304 302 305 303 298 298 296 295 294 293 293 294 294 295 297 297 297 299 300 302 305 308 311 310 315 316 312 308 305 303 303 302 301 298 296 295 295 293
297 300 295 295 298 299 302 304 303 301 299 298 296 294 294 293 295 295 297 298 301 304 300 299 300 301 305 310 313 314 312 310 307 303 302 302 301 299 300 299 297 295 293 293
298 299 296 296 299 299 300 300 300 299 299 296 296 295 295 296 296 296 298 299 304 306 303 301 302 303 307 312 313 310 307 305 302 301 302 300 299 296 291 291 294 293 293 296
301 296 291 289 299 296 295 300 299 296 295 295 295 295 298 297 295 297 297 300 305 304 304 305 306 306 311 311 308 307 306 304 302 301 299 296 294 293 291 289 288 290 290 290
Wind_Speed
10 12 13 18 17 19 20 23 25 25 24 24 25 25 22 23 21 19 20 19 17 16 16 14 13 12 10 8 8 8 7 4 6 4 6 6 7 7 7 4 11 13 9 8
13 14 14 20 19 20 22 24 25 25 25 23 21 23 23 26 24 23 22 22 20 18 16 14 13 10 8 6 6 8 7 6 6 4 7 7 9 11 9 4 8 12 11 9
15 20 16 12 17 20 20 21 22 26 25 23 23 24 20 26 18 14 27 22 18 15 13 12 14 12 9 9 6 8 9 7 7 8 4 7 7 9 12 5 8 10 10 9
12 10 16 18 19 18 21 20 21 23 21 19 21 18 22 20 20 16 26 16 14 9 11 9 9 11 10 9 8 8 9 10 9 9 8 8 8 10 9 7 7 9 10 11
18 20 18 19 14 14 19 16 17 21 21 22 22 15 18 21 18 11 9 8 5 6 8 5 6 9 9 11 8 7 11 10 9 8 10 7 8 9 9 8 11 12 12 13
20 18 18 15 11 15 19 20 20 20 18 18 20 14 17 3 9 12 8 15 5 4 4 8 9 6 7 9 11 8 7 9 9 8 8 10 10 10 10 12 10 12 11 9
17 20 13 5 12 14 17 17 12 13 12 8 10 10 9 14 14 12 13 8 6 2 4 2 4 5 5 8 7 8 9 10 9 9 9 9 11 11 14 13 9 14 10 8
14 14 15 14 18 23 21 15 12 22 17 19 16 10 11 12 24 9 5 3 5 3 3 4 5 8 6 3 5 6 5 8 8 8 10 9 8 8 10 14 10 10 10 11
13 9 26 22 17 9 13 12 17 11 15 16 16 22 14 19 21 8 3 4 5 8 8 5 7 8 10 12 11 12 10 10 4 3 8 7 8 9 10 12 8 6 4 13
10 23 14 17 18 13 18 17 12 5 7 11 12 7 3 12 13 17 13 15 3 2 4 10 8 12 10 6 7 6 7 6 8 10 5 7 7 9 11 9 9 10 11 14
14 14 18 19 16 21 17 10 12 10 7 7 13 5 6 5 6 14 14 16 22 20 9 8 6 3 10 12 6 7 7 4 5 8 8 7 5 8 9 8 10 16 16 16
13 9 17 24 27 26 22 18 18 7 11 10 7 10 17 10 8 12 16 15 17 16 18 9 3 9 9 10 13 8 6 8 4 6 8 6 5 5 7 7 8 16 18 15
9 4 12 17 10 14 18 20 13 16 10 11 14 11 18 14 15 15 11 15 17 14 13 11 10 9 9 9 11 12 8 9 7 7 8 7 5 1 5 5 11 6 17 17
5 6 16 15 21 21 24 25 25 22 11 15 19 24 20 19 17 19 5 10 17 13 13 7 9 10 10 8 9 12 11 9 6 9 10 5 10 10 11 12 9 6 16 15
9 10 18 19 23 22 27 30 27 24 26 22 24 23 22 20 14 14 14 13 13 13 12 7 7 9 9 11 9 12 14 10 5 9 7 9 11 17 15 19 16 9 11 3
8 4 12 17 20 25 28 28 30 26 25 20 17 19 11 11 8 10 14 15 13 11 14 13 12 13 8 11 13 11 14 10 5 9 4 11 11 12 13 15 17 20 14 7
14 4 8 24 20 22 21 20 13 17 11 11 14 12 17 20 19 15 17 14 13 15 16 14 14 10 8 11 13 16 12 11 9 2 11 9 9 13 15 15 17 19 21 10
6 5 8 10 17 13 13 14 9 10 15 15 18 18 17 20 19 17 17 18 18 17 18 11 10 9 8 11 13 17 12 8 7 6 15 12 16 18 18 20 20 21 21 10
19 11 4 6 9 16 18 8 11 13 16 16 14 19 22 20 20 22 20 17 12 12 10 9 9 8 11 13 14 12 12 13 6 9 14 14 17 18 19 20 18 19 22 11
6 10 3 4 5 7 9 6 21 17 15 15 20 22 23 20 15 16 15 16 17 16 13 12 13 11 13 13 13 10 13 14 13 12 15 16 16 19 20 19 20 16 18 14
9 9 10 11 10 9 5 16 14 8 11 20 15 18 22 18 17 25 22 23 21 20 21 20 17 15 14 13 11 10 10 11 14 16 17 18 18 20 21 21 18 18 16 13
13 8 9 7 5 7 22 23 10 8 15 16 19 19 18 19 24 23 24 24 23 22 20 19 15 14 11 11 10 9 9 12 17 19 19 19 18 15 17 20 16 19 14 13
5 6 5 5 8 20 19 16 15 13 15 19 18 14 21 22 24 24 25 27 24 23 21 19 15 13 12 11 12 6 8 19 19 21 21 19 19 17 18 21 16 15 12 9
9 13 7 15 13 18 19 16 16 18 16 13 16 19 20 23 24 24 20 21 19 15 17 18 16 13 12 13 10 10 15 20 21 22 20 18 19 17 14 12 12 11 10 7
13 15 12 18 18 16 14 16 17 16 13 17 18 19 20 20 19 19 17 19 16 4 14 19 17 14 13 12 15 17 20 22 22 22 19 19 16 17 15 10 7 9 6 8
10 3 4 4 15 9 10 15 15 16 17 18 20 19 16 10 16 16 12 15 10 10 15 17 17 14 14 18 20 20 21 24 23 21 16 15 14 12 11 13 16 19 18 25
Wind_Direction
310 308 288 284 280 284 300 300 296 294 297 289 279 280 308 300 279 263 261 263 257 252 253 236 236 230 216 212 211 159 165 208 209 211 230 246 224 236 262 248 154 162 171 192
284 283 314 329 316 306 304 298 291 290 286 283 292 285 277 271 278 271 263 259 254 248 235 231 223 220 202 212 195 155 162 198 227 229 217 225 226 217 224 236 147 161 171 185
313 296 306 312 299 302 299 296 297 298 304 297 292 284 296 300 329 273 248 243 243 250 248 240 208 207 195 195 215 167 173 191 218 232 218 229 239 243 234 231 156 167 169 175
295 291 326 314 301 301 300 317 315 303 297 290 302 297 277 271 249 202 274 218 225 244 228 236 250 200 190 192 191 185 179 179 202 211 235 212 223 221 221 217 201 165 171 185
287 302 302 298 315 330 302 298 295 293 287 281 271 264 271 276 290 301 218 83 17 300 308 263 253 226 203 185 206 203 177 193 190 197 215 223 226 244 226 205 204 184 179 198
272 284 287 296 323 303 283 282 289 290 285 265 280 335 282 295 331 38 32 251 176 133 34 1 320 290 218 200 192 204 182 187 184 200 193 222 230 235 232 223 204 195 173 192
307 297 319 317 291 295 309 314 308 299 281 310 43 340 257 285 218 190 199 324 7 78 35 265 276 227 262 219 245 202 199 184 186 189 194 228 230 233 240 216 188 223 163 182
295 309 318 348 321 301 292 275 277 291 293 295 303 263 255 272 197 180 50 339 279 257 130 336 35 9 348 262 236 234 244 185 184 198 187 210 241 224 238 228 205 237 178 149
318 278 323 305 298 319 320 311 297 283 279 273 269 260 350 11 350 74 157 336 50 50 46 55 39 28 19 17 3 2 4 16 322 268 185 195 243 233 238 233 200 209 167 121
295 296 295 303 301 260 254 270 298 268 287 290 306 337 292 27 8 332 355 330 20 112 61 49 22 10 10 7 347 325 329 356 327 315 243 193 224 238 248 238 185 167 121 129
310 288 294 306 291 292 303 290 264 284 273 273 292 299 130 136 216 288 300 1 355 350 118 130 252 310 323 333 318 306 301 243 259 282 292 203 225 226 242 242 157 138 127 127
299 299 292 299 291 273 262 272 313 286 276 271 275 263 272 360 16 6 321 336 331 329 337 344 8 2 350 324 314 312 336 320 290 279 268 216 202 258 242 236 129 143 137 132
315 258 301 308 287 9 328 316 298 303 314 272 280 274 309 322 305 290 292 321 317 309 304 331 342 344 321 312 314 312 307 302 318 306 281 218 181 242 325 110 111 166 127 132
220 245 250 263 281 300 298 300 299 292 283 279 269 289 286 288 307 317 276 265 262 273 286 283 317 308 288 290 301 319 303 300 315 303 286 204 97 93 85 99 99 127 119 140
199 242 248 258 273 277 280 279 275 272 266 261 280 297 313 296 312 312 306 300 315 296 279 276 273 282 314 310 311 305 303 282 287 281 286 130 127 107 96 93 84 76 107 181
311 292 285 283 279 286 285 282 275 264 266 261 284 262 333 306 277 281 294 298 291 282 286 299 300 295 309 302 300 286 289 304 280 288 104 100 129 118 107 100 108 91 49 92
271 226 272 274 290 298 290 288 282 298 255 249 305 329 325 307 296 291 292 293 306 298 291 290 279 287 304 293 306 305 281 292 291 19 92 107 116 112 112 106 95 97 85 36
217 177 239 274 289 266 258 16 359 347 311 333 320 326 5 344 326 312 304 299 290 282 277 296 308 295 297 296 297 297 309 272 286 111 116 108 102 95 96 93 90 92 85 82
215 196 187 232 229 280 286 36 359 335 304 305 357 344 319 315 304 287 288 286 291 309 309 299 303 295 282 287 288 298 297 301 115 129 127 119 112 106 101 99 102 92 95 92
99 163 210 265 275 288 342 34 328 309 294 8 343 325 320 318 289 288 305 306 296 283 268 269 271 267 270 275 270 288 292 309 133 132 119 112 108 106 101 101 94 93 96 92
328 301 247 266 264 268 100 315 349 315 332 326 309 308 305 294 285 298 303 290 283 277 270 264 256 253 254 254 248 265 281 272 129 119 115 109 108 108 107 100 96 98 93 97
309 299 298 303 282 279 359 339 349 293 310 324 309 311 298 296 291 289 284 278 271 261 254 246 237 238 235 237 234 244 258 143 124 115 111 110 116 114 110 109 107 104 94 97
309 315 284 261 281 311 303 323 340 349 313 311 309 316 302 294 291 289 286 282 272 249 232 228 217 225 215 210 218 183 185 126 120 113 110 111 109 108 108 111 116 105 116 115
304 312 286 296 283 295 306 326 330 324 315 316 317 303 296 293 293 293 297 290 283 263 202 194 193 198 196 193 185 157 122 118 116 110 112 114 108 103 104 107 109 109 99 91
288 297 279 280 290 333 310 323 308 315 322 320 304 298 295 295 306 307 306 312 316 132 152 160 168 181 180 175 134 127 123 119 114 113 115 111 107 101 91 74 85 92 81 165
273 267 280 268 309 304 302 306 333 325 324 308 304 305 309 314 312 322 327 328 14 98 127 144 154 164 143 133 127 125 128 121 119 117 111 113 107 102 102 95 79 60 82 71